Location: Unspecified
(0.0000°N, 0.0000°E)
Time: 04:44:46
(UTC+00:00)

Vanguard 3 - Pass Details

Date: 15 October 2022
Orbit: 508 x 3242 km, 33.3° (Epoch: 22 September)

Event Time Altitude Azimuth Distance (km) Brightness Sun altitude
Rises 21:22:08 0° 223° (SW) 7,211 12.4 -53.2°
Reaches altitude 10° 21:28:08 10° 214° (SW) 6,157 11.9 -54.6°
Enters shadow 21:40:29 30° 177° (S) 4,252 10.6 -57.6°
